Simultaneous Nadir Overpasses (SNOs) Predictions

Prediction of SNOs between METOP-A and TERRA Satellite Orbit:

Table of predicted SNOs for the next 14.0 days since TLE Epoch: 5/17/2014
Index Date (METOP-A) Time (METOP-A) Lat,Lon (METOP-A) SZA (METOP-A ) Date (TERRA) Time (TERRA) Lat,Lon (TERRA) SZA (TERRA ) Distance(km) Time Diff (sec)
1 05/19/2014 03:23:33 81.28, 176.03 64.53 05/19/2014 03:23:35 81.29, 176.14 64.55 2.13 2
2 05/19/2014 04:14:13 -81.28, -16.48 115.46 05/19/2014 04:13:02 -81.28, -16.34 115.48 2.39 71
3 05/21/2014 22:07:16 -81.27, 74.56 116.12 05/21/2014 22:08:26 -81.27, 74.71 116.07 2.63 70
4 05/21/2014 22:57:56 81.28,-117.66 63.93 05/21/2014 22:57:52 81.28,-117.51 63.95 2.52 4
5 05/24/2014 17:41:37 -81.28, 141.21 116.63 05/24/2014 17:42:41 -81.28, 141.26 116.59 0.95 64
6 05/24/2014 18:32:17 81.28, -51.01 63.42 05/24/2014 18:32:07 81.29, -51.00 63.42 0.53 10
7 05/27/2014 13:16:00 -81.27,-152.58 117.15 05/27/2014 13:16:57 -81.27,-152.41 117.10 2.90 57
8 05/27/2014 14:06:40 81.28, 15.18 62.90 05/27/2014 14:06:23 81.28, 15.30 62.91 1.97 17
9 05/30/2014 08:50:22 -81.27, -86.04 117.58 05/30/2014 08:51:12 -81.28, -85.91 117.54 2.21 50




NCC Satellite Simultaneous Nadir Overpasses (SNOs) Prediction Service
